Location: Lane
(33.5226°N, 79.8788°W)
Time: 11:32:48
(UTC+00:00)

Tiros 1 despin weight - Pass Details

Date: 07 October 2022
Orbit: 590 x 637 km, 48.2° (Epoch: 25 November)

Event Time Altitude Azimuth Distance (km) Brightness Sun altitude
Rises 03:34:14 0° 290° (WNW) 2,905 - -54.6°
Reaches altitude 10° 03:37:14 10° 270° (W) 2,003 - -55.0°
Maximum altitude 03:40:11 17° 230° (SW) 1,599 - -55.4°
Drops below altitude 10° 03:43:09 10° 190° (S) 2,008 - -55.8°
Sets 03:46:11 0° 170° (S) 2,916 - -56.2°
